• Join FlightAware (Why Join?)
  • Login
  • US Flag 
12:51PM EDT


 

Airport Tracker/Info


-or-


 

Live Flight TrackerFlight Track Log ✈ N1570N ✈ 04-Sep-2013 ✈ H75 - KBPK

Flight Track Log - Related Links

Times and Time Zones

All times are in EDT time to prevent confusion due to time zone crossing. See the N1570N flight status page for this flight to view local times or setup timezone preferences in your user account.

Time Position Orientation Groundspeed Altitude Reporting Facility
EDT Latitude Longitude Course Direction KTS MPH feet Rate Location/Type
05:55PM 35.5283 -90.6708 296° West 176 203 6,500  Level Memphis Center
05:56PM 35.5514 -90.7297 296° West 181 208 6,500  Level Memphis Center
05:57PM 35.5781 -90.7858 300° West 188 216 6,500  Level Memphis Center
05:58PM 35.6031 -90.8422 299° West 188 216 6,500  Level Memphis Center
05:59PM 35.6278 -90.8986 298° West 188 216 6,500  Level Memphis Center
06:00PM 35.6525 -90.9575 297° West 188 216 6,500  Level Memphis Center
06:01PM 35.6794 -91.0164 299° West 188 216 6,500  Level Memphis Center
06:02PM 35.7000 -91.0678 296° West 189 217 6,500  Level Memphis Center
06:03PM 35.7308 -91.1267 303° West 196 226 6,500  Level Memphis Center
06:04PM 35.7556 -91.1808 299° West 191 220 6,500 -60 Level Memphis Center
06:05PM 35.7803 -91.2397 297° West 191 220 6,400  Descending Memphis Center
06:06PM 35.8028 -91.2914 298° West 191 220 6,500  Climbing Memphis Center
06:07PM 35.8294 -91.3506 299° West 191 220 6,400  Descending Memphis Center
06:08PM 35.8539 -91.4044 299° West 191 220 6,500  Climbing Memphis Center
06:09PM 35.8889 -91.4742 302° West 202 232 6,500  Level Memphis Center
06:10PM 35.9133 -91.5283 299° West 202 232 6,500 -60 Level Memphis Center
06:11PM 35.9442 -91.5878 303° West 202 232 6,400  Descending Memphis Center
06:12PM 35.9583 -91.6342 291° West 193 222 6,500  Climbing Memphis Center
06:13PM 35.9889 -91.6936 302° West 193 222 6,400  Descending Memphis Center
06:14PM 36.0194 -91.7506 304° West 193 222 6,500  Climbing Memphis Center
06:15PM 36.0458 -91.8100 299° West 193 222 6,500  Level Memphis Center
06:16PM 36.0725 -91.8669 300° West 186 214 6,500  Level Memphis Center